Theta_e
313 313 313 313 313 313 313 313 313 313 313 313 313 314 314 314 314 315 315 316 316 316 317 317 317 317 316 316 316 316 315 310 308 307 306 310 318 321 323 326 329 327 325 313 309 305 304 304 305 309 308 306 306 305 309 307 304 300 293 291 289 291 292 297 296 298 299 298 300 303 303 302 301 308 310 311 321 327 327 325 327 328 331 338 340 342 343 343
312 313 313 313 313 313 313 313 313 313 313 313 313 313 314 314 313 314 315 315 316 316 316 317 317 316 316 316 316 316 313 309 306 307 307 317 325 325 327 328 330 328 323 311 306 304 303 302 305 308 306 302 309 303 308 302 305 297 294 292 290 293 296 300 301 302 299 298 302 303 303 303 302 311 311 307 309 323 322 325 328 332 335 338 339 340 340 341
312 312 313 313 313 313 313 313 313 313 313 313 313 313 313 313 314 314 314 315 315 316 316 316 316 316 316 316 316 316 312 308 307 306 312 324 325 325 328 329 329 329 315 307 307 306 306 304 306 306 305 302 304 302 304 301 302 299 294 290 292 298 299 301 303 303 303 303 303 302 303 303 306 308 314 310 307 318 320 321 326 330 331 334 336 338 339 331
312 312 312 312 312 313 313 313 313 313 313 313 313 313 313 313 314 314 314 315 315 315 316 316 316 316 316 316 316 314 310 306 304 311 317 332 328 326 327 329 330 329 313 308 308 307 309 308 307 306 305 303 303 306 300 301 297 298 296 292 295 299 298 301 303 303 303 303 303 303 304 302 304 308 312 311 310 313 319 326 327 329 331 333 336 337 335 327
312 312 312 313 312 313 313 313 313 313 313 313 313 313 313 313 313 314 314 314 315 315 316 316 315 315 316 316 315 312 306 300 305 317 328 333 332 329 328 326 334 318 311 308 307 307 307 307 306 306 305 299 303 301 300 302 302 299 296 299 300 300 299 302 304 304 303 303 302 302 300 302 306 306 309 311 308 309 316 321 331 333 335 334 335 336 329 328
311 312 312 312 312 312 312 313 313 313 313 313 313 313 313 314 314 314 314 314 314 315 315 315 315 315 315 316 312 310 305 289 307 316 333 332 330 329 328 331 328 312 309 306 304 305 304 304 305 302 301 300 299 296 298 301 302 294 297 299 301 301 300 303 304 303 302 302 301 300 302 303 302 301 304 308 314 315 322 323 332 334 336 337 338 332 328 327
311 311 311 312 312 312 312 312 312 312 313 313 313 313 313 314 313 313 313 313 313 314 314 314 315 315 315 314 311 308 305 306 312 318 332 332 329 329 332 330 329 313 306 304 304 303 303 303 304 302 301 300 300 299 301 300 302 298 294 299 301 302 301 303 303 303 302 303 301 302 304 301 301 299 304 311 316 318 323 324 327 334 336 339 334 331 328 327
311 311 311 311 311 312 312 312 312 312 312 313 313 313 313 313 313 313 313 313 313 313 313 314 314 315 315 310 308 303 304 305 314 328 334 333 329 330 326 316 308 307 306 303 303 302 304 303 301 304 299 297 299 300 301 300 300 297 296 299 301 302 303 303 302 302 302 302 302 303 301 301 301 301 302 303 316 317 321 322 327 333 333 332 330 329 328 327
311 311 311 311 311 311 311 312 312 312 312 312 312 312 313 312 312 312 313 312 312 312 313 314 314 315 315 309 306 302 303 313 318 324 329 323 319 319 314 308 307 304 305 305 305 305 305 303 303 303 296 298 302 299 300 297 293 298 298 300 301 302 303 303 302 302 300 303 302 300 299 300 302 303 300 306 315 317 321 321 329 333 330 330 329 328 327 326
311 311 311 311 311 311 311 312 312 312 312 312 312 312 312 312 312 312 312 312 312 312 313 313 314 314 310 307 306 298 310 319 321 325 322 319 318 314 309 307 306 304 305 306 307 306 305 304 302 304 303 300 301 298 300 298 295 300 299 300 301 301 302 303 302 302 302 303 300 299 298 299 302 302 293 304 316 318 320 320 328 331 328 328 328 328 328 326
310 311 311 311 311 311 311 311 312 312 312 312 312 312 312 312 312 312 312 312 312 313 313 313 314 313 307 308 301 297 314 313 323 322 320 316 313 307 304 306 306 305 305 306 306 309 309 308 305 304 302 297 300 298 298 299 301 300 300 299 299 301 302 302 301 300 300 301 302 301 298 299 300 300 295 299 317 318 316 320 325 328 327 327 327 326 327 326
310 310 310 311 311 311 311 312 312 312 312 312 312 312 312 312 312 312 312 311 312 312 313 313 314 311 308 306 302 302 313 313 313 319 318 312 309 308 307 308 306 306 305 304 306 309 310 308 306 302 294 301 295 299 298 301 300 300 300 295 297 299 298 299 299 301 301 300 301 301 298 296 297 296 299 303 303 314 316 317 322 325 325 326 326 325 324 324
310 310 310 310 311 310 311 311 312 312 312 312 312 312 312 311 311 311 311 311 312 312 313 313 313 311 306 299 303 313 314 313 311 313 314 311 311 311 310 310 308 307 307 306 307 310 309 307 305 301 302 300 298 293 300 302 300 300 299 296 295 294 294 299 301 301 300 301 302 300 287 289 294 298 301 302 304 305 314 315 321 323 324 325 325 325 325 325
310 310 310 310 311 311 311 311 312 312 312 312 311 311 311 311 312 312 312 311 312 312 313 313 311 308 305 302 308 310 312 313 314 312 312 314 311 311 312 312 312 310 310 309 309 309 308 306 306 303 304 299 296 304 300 300 301 292 296 296 290 289 288 298 300 299 297 301 302 300 288 288 295 297 301 301 303 302 305 310 320 322 324 324 326 327 327 329
310 310 310 310 310 311 311 311 311 312 311 311 311 311 311 311 312 312 312 312 312 312 313 313 311 306 302 306 316 318 330 321 312 312 312 314 312 310 309 311 311 312 311 310 309 309 309 309 306 301 296 303 301 298 295 295 296 295 290 286 290 289 290 297 299 299 295 299 301 297 289 288 294 297 301 302 303 303 303 304 318 322 324 325 327 328 328 328
310 310 310 310 310 311 310 311 311 311 311 311 311 310 311 311 312 312 312 312 312 311 311 308 308 307 303 300 309 327 316 315 314 317 310 310 313 310 311 309 310 311 310 309 310 310 308 307 301 299 299 300 296 291 291 290 290 294 289 289 288 289 290 293 298 300 300 299 300 298 288 292 294 298 300 303 301 305 303 304 318 322 324 326 327 328 328 328
309 309 310 310 310 310 310 310 310 311 311 310 310 310 311 311 312 311 311 312 310 312 308 305 311 309 297 311 319 310 309 311 314 311 310 309 310 313 311 308 307 307 308 309 308 308 306 303 304 300 301 293 294 293 286 284 286 288 290 286 290 289 290 288 295 299 299 299 295 298 293 292 294 299 300 301 302 305 304 305 319 322 323 326 327 327 327 327
309 309 310 310 309 310 310 310 310 310 310 310 309 309 308 311 312 310 309 309 311 311 309 310 308 304 301 311 305 308 312 312 312 311 309 309 309 310 310 308 307 306 305 304 305 301 303 297 299 291 295 294 293 290 286 283 286 286 287 286 288 291 292 291 289 295 298 298 296 294 295 293 295 296 298 299 301 304 304 306 321 323 324 326 326 326 326 326
309 310 309 309 309 309 310 310 310 310 310 310 309 311 313 314 311 309 306 308 305 303 298 301 302 289 293 303 312 313 313 313 314 312 308 307 308 309 311 311 307 303 299 297 296 299 299 296 300 290 287 288 290 291 289 291 294 292 293 290 290 287 289 290 295 298 297 295 295 293 292 294 296 296 299 300 302 302 303 309 321 323 325 325 325 325 326 325
309 309 309 309 309 310 309 310 310 310 309 306 304 305 306 304 304 305 307 307 304 306 306 306 307 304 303 306 307 312 312 312 307 307 306 308 308 306 306 307 303 302 298 292 296 297 298 288 286 286 288 292 295 295 295 296 296 295 294 293 290 291 292 295 296 298 299 295 295 294 294 295 295 296 298 300 300 302 304 310 319 320 322 324 324 324 325 325
309 309 309 309 309 309 310 309 310 309 309 306 303 300 295 296 291 293 297 304 306 309 308 308 309 306 305 309 311 310 304 305 308 305 307 310 308 306 302 303 298 294 293 297 295 302 297 288 288 292 294 295 296 298 297 296 297 295 293 292 290 293 290 296 296 298 299 295 292 294 293 294 295 297 298 299 300 301 302 307 317 319 321 323 323 323 324 323
308 309 309 309 309 309 309 310 309 309 309 305 302 298 298 297 300 303 298 293 299 307 308 307 308 305 310 310 312 311 308 302 302 304 309 309 306 300 300 300 295 291 294 295 294 292 288 287 291 295 297 298 298 298 299 297 295 295 292 291 290 291 295 298 299 299 298 297 291 295 293 293 295 297 299 301 302 302 304 307 317 317 318 321 323 323 324 322
308 308 309 309 309 309 309 309 309 308 304 301 300 300 300 304 305 305 303 297 295 301 300 301 302 305 306 310 310 310 302 300 299 303 305 308 303 302 300 296 293 293 295 295 289 290 287 289 294 298 298 297 297 298 298 297 296 292 290 288 288 293 292 289 295 297 301 296 292 294 293 293 295 297 298 298 303 303 305 306 314 319 316 321 323 323 322 319
308 308 308 309 309 309 309 309 307 305 303 302 301 302 307 308 305 304 302 294 292 298 300 302 302 302 302 303 309 307 302 302 303 301 308 307 301 303 299 296 294 293 291 293 293 290 290 295 298 297 298 297 296 297 297 293 290 295 294 292 291 293 294 293 294 298 303 301 300 294 291 289 294 293 295 297 302 305 304 305 305 313 318 321 325 324 322 320
307 308 308 308 308 309 308 308 303 307 307 306 302 306 307 307 306 307 299 295 295 296 306 304 304 303 304 310 309 303 304 304 304 307 307 307 303 301 298 301 295 290 292 294 294 292 293 298 300 297 296 297 295 294 296 296 290 291 296 295 295 296 295 296 297 295 291 289 298 293 283 284 290 293 294 295 297 300 303 302 302 303 314 318 321 321 321 322
307 307 308 308 308 308 308 303 306 304 302 297 301 307 311 312 309 309 301 292 287 297 302 295 307 299 309 302 306 305 305 298 305 307 308 308 310 303 300 295 296 289 293 293 292 292 293 299 299 297 295 295 296 294 298 298 290 290 291 298 296 296 295 295 294 293 287 283 294 297 284 280 288 292 293 296 296 295 301 301 302 312 316 318 319 320 321 321
307 307 308 308 307 307 300 298 305 303 297 297 303 305 308 309 308 308 295 287 284 299 296 300 301 299 306 304 305 306 289 293 306 307 306 310 305 308 296 292 295 297 297 298 292 288 297 297 297 298 297 295 294 290 297 296 291 288 298 297 296 294 293 294 293 292 289 297 300 298 290 283 282 289 295 296 296 297 299 301 303 315 317 317 318 320 320 319
307 307 307 308 307 306 300 302 300 299 301 303 307 308 306 309 308 305 293 277 275 300 297 297 302 308 305 305 306 300 299 304 297 302 306 309 308 302 299 295 293 294 296 294 283 296 297 295 296 295 297 293 290 295 299 298 293 291 297 298 295 295 294 294 291 289 292 290 286 291 295 286 283 289 295 296 294 295 298 301 310 316 317 317 318 319 319 319
307 307 307 307 307 307 305 302 301 300 306 308 309 310 311 310 305 295 287 277 295 295 309 298 311 306 305 305 302 302 301 303 296 301 306 308 308 304 294 297 297 296 297 295 288 296 299 298 298 297 295 291 297 297 297 297 292 295 298 298 297 296 295 294 290 289 293 287 282 289 293 284 283 289 291 294 293 294 297 303 313 315 316 317 318 318 317 318
307 307 307 307 305 304 305 303 301 306 308 310 310 311 309 304 296 287 280 273 301 288 299 301 300 299 304 298 298 301 299 300 302 302 304 302 303 305 304 305 298 296 294 297 295 296 298 304 303 299 295 297 297 297 298 297 297 298 297 295 294 294 292 293 290 290 288 282 284 293 296 291 282 286 290 290 293 294 298 303 313 314 316 317 318 317 316 317
307 307 306 307 300 303 303 300 304 309 310 311 311 309 304 297 288 280 275 286 296 294 302 299 298 304 299 297 293 300 300 300 300 299 297 303 300 302 302 297 301 294 291 292 292 296 298 298 297 298 301 301 299 296 299 299 298 297 293 291 289 288 290 288 290 290 281 277 287 292 293 294 282 284 292 297 301 300 301 303 310 312 313 314 315 317 317 317
307 307 307 304 304 306 300 298 308 308 307 309 309 303 295 281 288 278 279 301 284 291 292 294 299 299 298 300 298 297 296 298 299 297 294 296 294 293 293 288 292 284 284 286 286 294 292 292 297 299 303 298 296 294 292 296 297 295 291 290 284 280 282 279 282 279 278 276 287 292 294 292 286 290 296 301 304 305 304 309 310 312 312 313 316 316 316 317
306 306 308 306 307 303 303 305 307 306 307 308 304 298 288 278 273 284 285 291 287 296 293 299 297 297 298 297 295 298 300 293 298 297 299 299 295 295 297 295 294 291 284 290 288 288 287 295 295 297 298 300 297 288 287 289 291 291 287 287 284 279 278 275 278 279 280 287 292 291 294 286 294 295 300 303 305 307 309 311 313 313 312 315 316 316 316 315
306 306 302 305 306 306 307 309 309 309 309 309 300 292 287 277 277 293 289 290 290 297 297 295 296 298 298 292 295 298 291 297 296 296 299 296 295 290 293 296 297 292 292 291 285 286 280 282 289 293 290 298 296 294 293 292 291 291 294 290 285 284 282 275 278 276 278 279 287 295 288 283 286 291 302 304 307 309 310 312 312 314 316 317 318 318 317 316
305 305 304 306 307 308 309 310 310 311 310 303 293 286 277 278 284 284 286 290 294 296 294 298 294 293 294 296 298 299 297 292 297 295 295 295 290 292 290 292 296 296 293 284 291 287 289 285 291 297 296 298 295 298 298 296 292 293 295 294 288 283 288 282 281 283 283 280 282 285 283 292 291 304 305 305 308 308 311 313 314 314 316 316 316 316 316 317
304 305 312 310 310 311 312 312 312 311 307 299 288 280 279 284 282 290 288 296 296 293 294 295 294 289 289 291 297 296 300 293 300 294 294 295 295 293 296 295 294 296 291 284 289 284 289 286 295 296 298 296 297 298 298 298 284 291 292 285 288 295 293 284 283 289 283 282 280 283 288 294 298 299 302 303 305 306 308 310 311 311 313 313 313 314 315 317
301 306 306 312 313 315 315 314 313 311 305 297 287 279 285 288 292 291 295 292 293 293 291 285 287 287 288 287 291 295 299 298 297 294 289 297 293 296 296 296 298 296 297 294 290 293 286 286 296 296 293 297 298 299 298 298 297 292 288 289 295 298 298 288 281 282 280 278 279 286 282 287 289 284 298 302 303 303 305 308 311 311 312 312 312 313 315 315
301 304 308 308 310 317 317 315 312 307 302 293 282 290 293 288 294 292 295 294 293 293 289 287 288 293 289 289 288 292 296 292 295 295 291 296 290 302 298 297 300 297 297 298 290 293 294 284 290 296 297 300 302 298 296 298 300 294 292 299 290 280 282 287 284 279 279 277 279 281 289 288 288 288 294 299 301 301 303 307 309 310 312 312 313 313 314 315
302 302 301 308 311 312 313 313 309 303 295 288 281 283 290 291 295 293 294 294 293 291 286 289 286 293 291 288 291 294 295 289 293 292 288 294 286 300 299 301 298 301 301 300 292 295 296 283 287 295 295 299 298 296 284 289 296 298 299 295 299 291 286 282 282 284 283 279 279 279 288 282 294 293 298 298 301 302 304 305 307 309 311 313 313 313 312 312
302 302 301 312 313 314 316 313 305 299 293 283 286 287 292 289 292 294 295 294 291 289 289 289 292 287 291 291 293 289 295 292 294 296 293 295 293 301 299 303 298 298 300 302 297 298 288 291 281 290 298 297 288 292 288 291 289 289 290 290 294 293 296 293 292 286 282 279 279 280 280 284 292 300 301 302 303 303 304 305 307 309 312 313 313 312 311 312
306 301 301 315 313 315 313 306 298 293 290 292 294 292 293 291 293 294 295 295 293 296 291 291 291 288 291 290 289 293 291 293 295 292 293 295 295 288 303 300 300 297 301 300 297 297 287 288 284 288 289 290 292 298 300 297 296 293 290 288 289 290 287 282 282 292 291 283 280 280 280 288 298 306 304 304 305 305 306 307 307 309 311 312 313 312 312 313
300 294 300 313 314 314 307 295 294 297 293 290 289 293 292 300 294 294 294 295 293 291 296 294 294 292 292 292 292 291 291 291 292 294 295 292 300 297 301 303 301 301 298 291 294 301 297 292 287 283 287 289 294 299 301 300 299 297 295 291 293 292 291 285 280 283 288 289 292 287 284 284 299 304 305 306 306 307 307 307 307 308 308 310 312 313 313 313
301 297 309 312 313 310 302 291 294 291 292 295 298 297 298 296 295 297 294 296 292 294 295 294 293 292 294 292 293 291 292 290 292 292 296 297 298 302 303 303 302 302 300 297 298 301 304 286 286 288 292 296 298 300 300 300 298 295 295 297 296 292 292 289 288 289 285 287 283 283 281 285 298 305 306 307 306 306 307 308 307 308 309 310 311 313 313 313
299 300 303 311 313 309 298 284 284 285 292 295 296 295 298 297 296 294 294 295 293 293 294 293 294 295 292 295 293 291 295 285 294 294 292 296 295 302 302 304 305 300 300 298 293 300 288 289 288 281 283 285 288 292 293 297 296 291 290 294 298 298 297 297 294 289 282 286 288 283 279 285 297 304 305 307 307 306 307 309 308 307 308 310 311 311 312 312
299 304 303 306 309 307 292 295 291 286 290 291 292 291 292 294 297 296 296 294 296 293 293 292 294 294 293 294 293 294 295 292 291 296 296 298 297 300 301 302 303 302 303 304 306 301 290 289 288 280 278 275 276 278 281 283 288 291 294 295 297 297 295 292 285 285 281 286 290 284 285 292 299 303 303 304 305 305 306 307 309 309 309 309 310 310 311 312
296 285 295 297 300 298 297 299 296 292 288 290 286 291 293 291 295 297 297 296 296 295 293 293 294 295 292 292 291 291 292 295 291 293 294 294 296 300 301 301 302 301 308 310 309 301 291 295 292 287 283 283 284 287 293 293 292 287 291 293 295 297 297 294 286 283 282 285 285 290 291 292 295 298 300 300 302 302 303 305 306 306 308 309 310 311 311 311
300 289 287 284 295 294 293 294 293 294 288 293 283 291 290 292 293 295 298 292 295 294 294 296 294 291 291 291 291 290 292 292 295 295 295 295 297 298 301 301 302 307 310 304 306 298 293 287 292 294 293 291 293 293 295 294 292 292 291 292 295 295 295 292 286 284 292 284 282 289 294 291 292 297 299 299 301 302 303 304 305 306 307 308 309 309 311 312
290 293 297 297 290 284 285 286 293 292 294 294 288 293 290 290 291 288 295 296 296 296 292 293 295 295 293 292 293 286 291 291 295 290 298 297 295 297 297 300 299 303 303 300 303 297 293 284 292 293 292 293 294 294 295 294 292 293 292 293 293 295 294 291 290 293 292 282 283 290 294 293 295 298 300 301 302 302 303 304 305 307 308 308 309 309 306 304
296 297 298 300 290 293 292 294 295 293 291 292 291 292 290 290 289 292 292 293 295 294 295 284 292 293 294 296 294 290 291 285 284 295 294 294 294 294 293 297 300 302 300 299 299 301 296 286 294 294 292 293 292 293 294 293 293 292 293 292 294 294 293 293 293 294 294 292 295 295 293 290 293 295 300 301 303 303 302 303 303 302 304 304 300 297 297 297
291 291 291 298 297 293 293 292 292 290 287 292 285 290 291 290 289 292 294 293 286 292 295 292 292 294 294 294 292 288 289 292 291 286 296 296 293 296 294 296 293 299 300 297 298 299 294 285 294 295 289 290 292 292 293 292 292 292 293 294 294 294 294 294 292 293 294 293 294 292 289 288 293 296 297 298 298 297 295 293 294 295 295 296 295 294 294 294
299 300 299 293 288 291 293 292 289 287 284 287 285 289 291 291 291 293 293 296 293 291 292 290 293 294 294 292 291 291 292 292 292 293 295 294 289 298 292 295 299 294 299 299 298 297 294 286 294 291 284 283 291 291 291 292 291 290 290 292 292 290 288 291 288 293 291 289 290 290 286 285 292 294 293 294 294 293 291 292 292 292 293 293 292 292 292 293
299 301 301 296 288 293 290 291 289 287 282 286 288 289 291 291 293 294 286 295 296 295 294 293 293 294 292 290 289 290 293 294 295 295 296 296 297 297 298 300 299 296 296 295 296 291 294 288 283 284 283 283 289 291 290 289 287 284 285 290 293 292 292 293 296 296 294 292 286 285 285 291 292 293 291 291 291 291 291 291 291 292 292 292 291 292 292 293
Wind_Speed
11 11 11 12 12 12 12 12 12 12 11 12 11 11 11 11 11 11 12 12 13 13 13 14 14 14 15 16 16 16 14 11 13 10 10 20 13 18 19 12 3 14 12 4 3 3 3 5 7 7 6 4 4 7 7 7 4 3 5 4 7 7 10 10 9 6 3 3 2 7 5 6 5 1 1 4 15 14 11 11 6 9 8 13 16 19 16 13
12 11 11 12 12 12 12 13 12 13 12 12 12 11 11 12 11 11 12 12 12 13 13 14 14 14 15 14 15 15 11 12 14 13 19 19 9 17 16 17 9 13 10 4 6 7 5 7 7 6 6 5 4 5 4 3 4 5 3 5 9 6 12 10 10 10 7 4 5 4 5 4 4 5 2 2 9 14 11 8 12 15 14 16 17 17 17 13
12 12 12 12 12 12 12 12 13 13 13 13 12 12 12 12 12 11 12 12 12 12 13 13 14 14 14 13 14 13 12 11 11 13 18 21 26 18 14 11 12 14 10 4 6 7 7 7 7 7 6 6 4 7 6 5 5 6 4 6 9 9 10 12 9 12 15 2 3 4 2 2 3 2 2 2 4 9 11 9 11 16 13 14 15 17 15 18
13 13 13 13 13 13 13 13 13 13 13 13 13 13 13 12 12 12 12 12 12 12 12 13 13 14 14 14 13 10 9 10 6 8 5 6 15 24 15 12 12 12 6 5 5 8 8 6 9 10 6 8 5 9 6 6 5 3 7 6 8 7 10 14 16 16 8 4 2 2 0 3 2 1 1 6 3 8 5 7 12 14 16 16 15 15 17 16
12 12 13 13 13 13 14 14 14 14 14 14 13 13 13 13 12 12 12 12 12 12 12 12 13 14 14 14 12 7 9 5 0 1 6 2 8 16 16 13 11 9 7 3 4 8 9 9 9 10 7 5 8 5 8 8 8 3 7 11 13 12 14 17 9 10 14 6 5 3 3 1 3 4 2 9 4 3 6 5 13 14 16 18 16 16 16 15
13 13 13 13 14 14 14 14 14 15 14 14 14 14 14 14 13 13 13 12 12 12 12 12 13 14 14 14 8 6 2 1 2 2 2 4 12 15 15 11 12 7 5 4 6 5 6 9 10 8 6 5 5 7 5 9 6 9 8 7 13 13 14 13 11 7 4 5 8 6 4 5 6 6 3 1 6 4 10 9 14 13 14 16 16 18 15 13
13 13 13 14 14 14 14 14 14 15 15 15 15 14 14 14 14 13 13 12 12 12 12 12 12 14 13 13 8 2 3 10 8 4 6 7 11 13 12 8 6 3 5 5 7 6 7 10 10 7 5 7 9 8 10 8 10 9 7 7 12 8 12 12 12 12 7 2 1 4 9 8 2 8 1 6 7 13 10 6 11 13 15 17 17 15 14 13
14 14 14 14 14 14 15 15 15 15 15 15 15 15 15 15 15 14 13 13 12 12 12 11 12 12 12 9 3 3 4 9 11 1 8 6 8 10 11 7 6 4 6 9 8 10 9 9 9 6 7 6 4 10 8 11 9 10 12 11 8 7 9 10 11 10 2 2 2 3 5 9 2 1 5 1 8 13 15 10 13 14 16 16 18 14 12 12
15 15 15 15 15 14 15 15 15 15 15 15 15 15 16 15 15 14 14 13 13 11 12 11 11 11 9 4 2 7 8 11 12 8 8 8 8 8 10 6 7 7 5 7 8 9 7 6 9 7 5 8 9 10 7 7 8 7 9 8 10 12 11 11 11 10 4 4 6 2 5 6 4 5 4 4 8 10 17 13 16 17 15 17 17 15 14 13
15 15 15 15 15 15 15 15 15 15 15 16 16 16 16 16 15 14 14 14 13 12 11 11 11 10 7 3 4 3 9 3 9 10 10 8 9 7 8 7 10 7 7 7 7 9 9 6 8 6 10 10 7 6 8 8 7 6 8 10 11 10 9 12 14 11 3 0 5 6 3 4 2 3 3 3 12 15 17 15 17 18 14 14 15 14 14 15
15 15 15 16 16 15 15 15 15 15 15 16 16 16 16 16 15 15 15 15 14 12 11 10 9 8 5 3 3 6 8 6 4 9 13 11 10 8 10 7 11 8 7 7 10 10 11 13 8 4 4 4 2 8 8 5 7 10 11 10 8 11 14 13 8 7 4 1 1 3 2 3 4 3 6 3 11 14 15 17 19 14 15 13 12 13 11 12
16 16 16 16 16 16 16 16 16 16 16 16 16 17 16 16 16 15 15 15 15 13 11 9 8 4 6 5 6 11 7 3 0 3 7 11 7 9 8 7 11 8 9 8 10 11 12 11 10 5 4 3 10 7 9 11 9 10 10 12 11 11 8 5 8 9 4 3 4 4 6 5 3 6 5 10 6 9 13 15 17 14 13 14 12 11 10 10
16 16 16 16 16 16 16 16 16 16 16 16 17 17 17 17 17 16 15 15 11 11 10 9 7 4 3 5 11 17 17 15 17 14 5 8 7 7 8 8 10 10 10 11 11 11 10 9 5 6 5 5 3 3 6 8 9 5 5 5 7 6 8 8 4 9 4 3 6 6 6 8 7 7 10 7 11 8 14 13 16 12 13 11 10 9 10 10
17 16 16 16 16 16 16 16 17 17 17 17 17 19 18 17 17 16 16 15 13 11 10 9 4 4 2 7 7 7 10 10 14 14 11 10 9 9 10 9 9 12 10 12 11 8 8 5 4 5 4 6 4 6 9 6 5 5 5 3 4 4 5 2 4 4 7 5 10 7 8 7 8 7 9 6 11 7 8 14 16 15 13 12 10 10 10 10
17 17 16 16 16 16 16 17 17 18 18 19 19 18 18 18 17 15 15 12 9 10 10 6 4 3 3 9 9 19 25 15 12 14 8 8 9 6 10 8 9 10 10 8 6 5 4 4 2 4 4 3 6 5 7 5 3 4 4 6 3 8 2 6 5 7 10 4 8 4 5 7 6 8 11 8 10 7 8 8 17 15 14 12 11 10 10 10
17 17 17 16 17 17 17 17 18 18 19 20 20 20 21 19 16 14 14 11 10 8 6 5 5 6 5 10 7 10 4 5 9 12 7 6 7 9 7 9 6 5 4 5 5 3 4 3 4 2 4 4 6 5 7 6 5 4 4 3 4 4 7 6 8 9 11 5 9 11 4 5 4 9 9 11 4 13 8 7 19 15 16 13 11 11 10 11
17 17 17 17 17 17 18 18 18 18 20 19 22 22 20 19 14 10 8 8 5 4 5 2 1 7 1 4 10 7 7 8 6 7 6 8 7 8 7 8 6 7 5 6 4 3 4 4 1 4 2 3 3 4 5 6 6 6 3 7 5 6 2 7 4 11 11 11 5 13 8 4 5 12 12 9 10 12 13 13 20 16 13 12 11 11 10 10
17 17 17 18 18 18 19 19 18 19 20 20 20 21 19 19 9 2 7 2 3 5 7 6 6 4 11 8 6 8 7 8 10 7 9 6 10 8 9 7 5 7 5 5 5 5 3 3 2 3 2 5 4 4 7 8 7 7 5 6 8 7 9 8 5 6 12 13 13 8 13 7 9 7 9 8 6 9 12 13 20 17 15 14 12 12 12 12
17 17 18 18 19 18 19 19 19 19 20 20 20 20 17 3 2 3 2 3 2 1 1 3 4 5 4 3 11 8 5 10 9 10 8 7 8 8 8 6 5 7 5 4 1 7 2 3 2 4 7 5 9 9 8 8 8 11 12 7 8 7 8 12 15 13 9 10 16 9 11 13 14 8 13 7 5 3 8 14 15 16 15 13 13 13 12 12
18 18 18 19 19 18 19 19 18 19 19 13 12 10 1 1 1 1 2 5 6 8 10 6 13 7 10 14 12 11 5 9 8 8 5 8 6 9 10 5 3 3 3 6 3 8 3 6 7 8 7 7 7 9 10 11 11 13 12 11 7 7 8 10 14 11 12 10 18 13 12 15 11 11 12 12 2 7 17 14 15 15 13 12 10 10 12 12
20 19 19 20 19 20 19 19 15 15 15 8 8 4 2 3 4 2 2 9 15 13 13 12 15 16 13 11 13 11 4 3 2 5 8 9 7 6 7 5 5 5 5 5 6 3 6 6 9 7 8 9 9 9 11 12 10 9 8 7 9 8 9 9 12 12 10 7 9 8 8 12 10 11 13 8 6 3 4 13 14 16 14 13 14 13 13 12
20 20 20 20 21 20 22 19 18 15 10 5 3 4 5 10 7 7 4 11 7 13 15 18 15 15 13 15 17 12 10 9 8 6 3 14 8 7 3 6 5 7 5 5 5 2 7 9 7 9 9 9 11 9 7 10 10 10 7 7 7 9 7 13 15 18 6 7 10 12 9 7 10 10 12 6 9 8 10 16 17 18 15 14 14 15 14 13
19 21 21 21 21 22 22 23 18 17 7 3 4 5 7 10 9 8 5 7 15 10 13 15 16 19 18 13 13 8 12 12 8 9 5 10 5 10 4 9 6 7 6 8 7 4 4 8 14 11 10 9 8 11 10 7 8 7 5 5 9 10 4 6 15 9 3 4 7 10 10 7 6 7 10 5 7 7 9 14 19 20 18 17 18 18 16 15
20 20 21 21 22 22 24 23 24 9 5 9 8 10 11 8 9 11 4 2 9 18 14 16 14 14 16 14 6 12 11 6 7 10 8 10 7 9 6 7 9 6 8 10 12 8 10 12 9 11 11 9 10 10 5 2 2 3 5 6 6 9 7 5 7 11 4 3 7 8 3 3 3 3 4 3 5 5 7 7 11 12 14 14 14 12 16 18
20 21 20 22 22 24 24 26 9 1 3 7 6 12 13 13 9 5 4 4 4 8 4 11 10 12 12 10 7 10 8 8 7 3 6 13 11 5 8 5 5 8 10 9 12 11 13 13 7 13 14 13 11 12 8 3 2 2 4 6 8 10 10 9 11 8 8 3 3 7 2 2 1 2 5 7 2 6 6 8 7 6 16 15 15 14 12 14
19 20 20 20 22 23 26 8 2 8 11 8 5 10 7 7 4 1 2 2 6 6 3 6 9 7 7 10 9 10 7 10 8 9 4 12 11 7 4 6 5 7 11 11 9 5 10 9 9 10 14 14 15 11 4 4 3 1 5 4 9 13 8 8 11 6 1 4 4 3 4 3 5 4 6 3 10 7 4 7 6 14 14 12 13 13 12 10
19 19 20 19 19 20 9 2 7 11 6 5 9 13 11 8 8 5 3 1 4 5 4 1 5 1 1 8 11 9 7 7 7 8 8 11 10 7 5 6 4 6 6 4 3 6 7 12 8 10 8 12 4 4 3 5 5 6 1 7 11 10 8 5 6 8 4 1 3 4 5 2 3 7 7 6 4 0 8 6 9 14 14 13 12 12 9 12
19 19 19 19 18 12 5 8 11 8 7 9 10 12 9 9 8 3 3 2 1 4 3 0 2 2 2 9 13 11 6 3 8 8 8 12 9 8 8 7 8 11 10 5 7 4 9 9 9 7 2 1 3 3 2 5 4 3 5 11 13 13 9 6 5 6 3 4 2 2 4 2 2 7 6 4 5 1 6 7 13 14 15 13 12 10 15 16
18 18 19 20 20 21 12 6 4 8 5 6 11 11 8 7 2 2 1 1 4 2 2 4 4 2 2 7 8 6 8 3 5 7 6 13 13 2 8 12 11 9 6 6 8 4 4 8 9 9 3 3 3 3 5 6 5 7 8 8 7 8 10 5 4 6 1 1 3 2 2 3 2 6 6 3 4 7 8 11 17 16 16 15 13 15 16 14
20 19 20 19 16 8 1 4 9 12 9 10 11 10 7 5 2 1 0 3 1 3 2 2 2 5 3 6 4 7 9 4 6 5 9 10 10 5 3 2 8 9 10 9 11 8 6 5 7 8 6 4 3 5 5 7 10 3 7 7 7 8 5 10 6 1 2 3 6 4 2 3 2 4 5 4 7 9 8 9 12 14 14 12 14 19 13 13
21 21 19 16 6 4 6 6 12 11 10 10 7 5 2 1 1 1 3 4 4 5 1 1 6 8 8 9 5 7 9 7 8 5 6 8 7 7 1 5 5 3 4 5 4 10 12 5 1 0 6 6 4 4 6 10 8 9 3 5 5 7 4 2 1 2 1 2 4 7 6 5 5 4 4 2 8 5 12 15 16 15 16 14 14 15 12 12
21 21 19 11 9 6 5 5 0 6 9 10 5 4 1 0 1 3 4 1 5 4 5 4 6 6 10 9 6 8 7 7 8 6 9 8 5 7 5 4 3 4 6 4 6 4 9 6 2 5 2 5 3 7 6 8 7 8 5 2 3 1 2 2 1 4 4 3 3 4 4 1 5 2 2 6 9 7 8 17 15 15 15 15 18 17 12 10
23 21 25 14 11 9 13 16 11 11 9 9 3 3 1 2 3 3 6 3 3 4 4 4 3 8 6 7 8 7 9 9 6 7 8 8 5 8 7 10 4 5 2 3 4 1 5 4 4 7 4 6 3 3 3 7 1 7 4 5 2 0 1 3 2 1 1 1 2 5 7 5 2 2 5 9 8 7 11 15 14 16 16 17 18 16 14 12
23 23 13 6 7 10 8 5 8 9 5 3 1 2 0 0 3 6 9 8 12 13 12 8 11 3 2 5 7 4 5 9 6 5 9 5 8 4 7 11 13 4 4 1 3 4 2 4 8 3 3 6 6 7 4 3 2 3 2 5 7 4 2 4 2 3 5 5 6 3 5 2 4 3 2 7 8 11 9 11 11 15 17 18 16 15 15 12
27 22 10 6 6 10 11 9 8 8 4 1 0 1 3 4 3 3 4 6 8 10 14 12 11 6 5 7 4 8 6 3 11 4 8 6 6 3 5 8 11 9 3 2 2 1 7 6 5 10 7 9 8 6 5 5 4 2 3 2 1 5 4 3 1 2 2 0 3 1 2 1 3 1 7 5 11 12 14 13 16 16 15 15 15 14 12 10
18 6 2 2 4 5 9 9 8 7 1 1 1 2 6 4 2 3 3 5 8 9 11 11 11 6 4 2 5 9 8 3 8 4 4 10 7 7 6 4 8 12 3 6 2 3 2 3 2 9 13 7 11 6 6 3 1 3 4 3 7 6 6 1 1 1 4 3 2 2 2 2 1 3 2 8 13 11 12 12 11 11 13 13 13 11 10 9
5 8 2 5 8 5 8 9 7 4 2 1 1 4 3 4 10 11 7 12 12 15 12 8 4 6 3 5 2 5 5 7 7 3 2 1 3 6 8 8 10 9 14 4 3 3 3 5 6 2 8 9 5 9 5 7 5 3 2 6 3 1 5 5 3 1 1 3 3 3 4 2 3 1 1 11 12 9 13 12 12 12 12 12 10 10 10 10
6 4 6 8 5 10 9 10 6 5 2 1 3 5 2 8 6 11 9 13 13 9 10 7 4 11 2 4 2 3 3 6 3 8 3 1 2 5 7 6 5 4 5 12 6 2 0 4 4 0 3 3 7 4 9 6 7 8 7 4 1 1 2 4 2 1 0 1 1 1 4 2 2 2 2 8 10 9 11 11 12 11 10 9 8 10 10 10
3 3 3 2 6 4 4 3 4 3 1 2 3 4 5 9 12 14 13 13 12 12 9 9 9 1 7 3 5 5 3 3 5 3 5 2 2 3 6 5 5 6 6 5 6 2 2 1 4 4 3 1 2 1 3 6 4 6 2 0 3 6 3 1 2 2 5 2 1 3 5 1 2 2 3 3 6 8 11 11 10 10 10 10 7 7 9 9
2 1 2 1 5 3 3 1 2 1 2 3 3 5 6 9 9 11 13 12 9 5 4 10 9 8 4 5 10 5 4 0 10 3 4 3 2 4 4 6 4 5 8 4 3 1 2 4 2 3 3 4 3 2 3 1 1 3 5 1 1 0 4 6 1 3 3 3 2 4 1 2 6 3 2 7 6 7 12 11 8 8 10 10 8 7 7 8
2 1 2 1 6 4 7 2 1 3 3 4 6 9 10 9 9 10 13 13 10 9 9 9 9 4 3 7 9 10 4 1 3 4 5 1 2 2 3 2 5 7 5 8 6 4 1 1 7 2 2 0 3 3 8 11 10 2 5 5 5 3 1 2 4 2 2 3 2 2 2 1 4 2 7 6 3 6 8 13 10 9 10 9 6 4 5 7
2 0 1 3 5 5 3 3 2 3 3 5 4 5 7 8 10 12 12 10 10 8 7 6 5 5 3 3 3 7 7 7 1 5 1 6 2 4 5 4 6 4 3 1 3 3 1 2 3 3 5 3 4 8 5 9 8 9 8 8 6 2 6 5 1 3 3 0 2 3 5 1 2 6 4 7 4 5 7 9 10 8 7 6 5 5 3 3
2 1 3 6 4 4 3 2 2 2 2 3 8 11 11 11 9 10 14 13 10 5 2 2 3 6 4 5 6 7 5 3 7 2 4 4 6 8 5 1 6 4 3 4 10 4 4 1 1 1 2 2 5 7 5 10 10 9 8 8 13 10 4 4 7 7 4 3 4 2 2 4 2 3 4 7 6 6 6 8 10 8 6 5 3 3 4 3
4 1 1 2 5 6 1 1 3 4 4 7 7 10 9 10 11 11 11 11 7 4 3 4 6 3 6 8 10 10 3 1 3 4 1 5 3 6 5 3 2 3 5 3 3 5 3 3 3 1 2 5 6 6 4 7 8 2 3 7 10 9 12 4 4 3 3 4 8 4 2 3 2 5 4 8 7 8 7 8 8 8 6 5 7 5 5 6
3 3 3 2 2 1 2 1 3 4 6 7 7 11 9 7 6 8 12 14 9 6 4 3 7 8 5 7 11 13 6 4 2 5 2 1 2 2 5 8 7 3 1 2 5 1 2 2 2 1 2 1 1 3 3 3 1 2 3 8 13 14 9 6 1 2 2 2 4 6 2 1 3 3 7 9 11 10 10 11 11 9 7 8 7 6 8 7
2 1 2 2 3 6 3 3 3 3 3 5 7 7 9 8 9 8 9 12 9 6 4 5 5 6 6 8 7 8 10 8 7 2 2 1 2 0 1 8 5 3 4 4 3 5 1 3 3 1 2 2 4 4 2 3 2 6 6 10 10 10 10 6 3 2 3 3 4 1 10 10 5 4 7 6 10 11 11 11 11 11 9 8 8 10 9 9
3 2 1 2 1 6 3 5 4 2 2 3 2 6 8 9 7 7 10 4 5 5 5 1 3 5 4 6 4 5 4 9 9 9 11 4 2 1 7 8 8 9 10 5 8 2 2 1 1 1 1 2 5 4 5 5 4 3 7 8 12 12 8 11 5 2 5 3 3 2 11 10 4 3 3 7 9 11 10 9 10 11 10 10 11 10 8 8
1 1 1 2 2 2 3 3 4 2 3 3 0 3 6 9 10 5 10 7 17 5 2 5 8 13 14 5 7 5 9 5 8 4 8 9 7 3 3 4 5 9 12 4 3 2 2 1 4 3 4 3 5 6 4 3 2 1 6 6 12 11 13 9 3 6 4 3 6 3 8 8 3 5 4 7 9 10 11 11 10 9 9 9 8 11 13 15
2 1 2 3 2 1 2 0 2 3 2 5 0 6 7 7 7 5 2 6 9 11 12 3 6 10 12 8 6 3 8 5 5 3 2 4 4 5 4 5 6 10 10 9 5 7 4 1 3 5 3 2 2 6 6 6 2 3 2 5 9 11 8 6 3 9 9 8 14 13 15 13 8 6 7 9 9 9 9 9 10 10 10 12 15 15 12 13
4 3 2 4 1 3 3 1 2 4 5 7 2 5 7 7 5 7 5 3 2 5 8 4 8 8 11 9 9 6 4 3 3 3 3 2 3 0 1 1 1 4 7 4 3 8 5 3 7 3 4 2 3 6 6 7 6 1 2 5 9 8 9 5 4 7 9 12 10 11 16 11 6 5 10 9 11 12 15 16 13 12 14 14 15 13 13 15
2 3 2 2 4 1 1 3 4 4 3 4 3 4 4 9 7 7 4 9 8 5 10 10 9 3 8 9 9 8 9 7 6 6 6 5 2 3 1 1 1 4 5 3 4 4 4 2 6 8 6 4 2 3 5 7 7 7 9 8 5 6 6 3 3 0 6 6 7 8 9 5 3 6 12 11 12 15 13 11 11 11 12 13 14 12 13 14
4 3 4 2 1 5 0 5 3 3 4 1 1 4 3 9 10 10 3 6 11 10 9 10 11 5 3 8 9 8 10 10 8 7 6 5 6 8 4 5 6 6 5 3 2 4 2 3 3 1 2 3 13 6 5 7 6 4 6 7 6 3 9 8 7 7 5 10 7 4 6 4 3 1 14 11 11 12 12 10 10 11 11 12 12 11 11 12
Wind_Direction
347 347 346 344 343 342 341 341 338 335 335 330 326 324 318 315 311 307 307 307 308 309 309 310 312 317 315 315 316 315 322 310 305 290 266 246 217 218 249 261 185 197 193 197 238 248 217 196 214 236 242 225 232 243 255 266 241 197 217 214 252 247 259 254 260 265 301 30 15 8 10 25 69 140 46 138 96 104 96 73 48 42 53 96 115 122 125 124
349 347 347 345 343 342 341 340 338 337 339 333 329 324 319 317 312 306 304 306 306 305 308 310 313 314 316 315 315 321 324 305 288 274 248 247 207 224 228 242 222 174 162 197 215 218 205 191 214 214 228 237 222 247 195 244 244 215 219 202 235 230 251 265 272 296 315 341 5 336 79 330 15 85 349 50 116 101 86 92 83 74 81 92 107 115 117 106
348 347 346 347 345 343 340 340 339 336 336 334 332 329 326 318 314 309 305 303 305 306 307 310 313 315 314 318 321 323 321 301 288 261 257 241 229 221 220 189 167 161 170 178 219 219 219 188 197 208 222 247 215 243 195 235 223 231 227 230 239 240 261 263 283 285 274 284 21 26 33 76 346 57 237 64 67 92 110 118 98 105 109 107 114 113 106 83
348 346 347 346 344 342 341 339 338 338 335 335 333 331 327 324 316 312 307 304 304 305 308 308 312 315 316 320 323 326 300 292 276 246 224 301 207 206 191 168 161 165 189 221 217 226 241 217 195 205 219 223 239 238 227 216 226 188 211 235 246 243 249 253 249 259 302 300 174 110 76 40 308 165 156 68 28 90 126 132 132 129 125 121 115 115 92 93
349 348 346 345 344 342 341 340 338 337 336 333 332 330 327 325 322 314 310 307 304 305 306 309 313 315 319 317 325 328 309 343 73 173 332 7 149 172 173 166 160 168 188 206 252 260 248 239 211 206 221 222 233 249 235 236 206 261 222 221 244 260 275 272 300 318 311 50 17 27 59 87 298 335 107 140 149 181 163 146 123 127 128 127 125 105 91 106
349 348 347 345 345 344 342 340 338 336 334 333 331 329 326 325 324 319 313 308 306 306 310 313 315 318 317 318 310 297 323 129 334 357 357 101 129 149 155 152 166 167 170 205 218 241 258 271 240 216 205 237 221 219 236 239 200 235 255 246 229 235 251 273 282 274 353 29 12 348 342 348 21 315 309 109 139 163 141 141 131 130 127 117 115 103 113 121
349 347 346 346 344 343 342 339 338 336 333 331 329 328 326 325 324 322 315 311 305 306 307 311 315 318 322 314 273 218 251 274 316 242 127 136 137 137 134 133 140 163 176 189 215 230 229 244 242 222 227 213 239 248 253 240 226 236 251 242 250 244 247 261 267 266 274 37 87 331 325 321 181 263 9 105 128 124 127 115 112 116 112 107 102 118 137 141
348 347 345 344 343 341 340 339 336 333 332 329 327 326 325 322 321 322 318 312 310 307 308 312 315 319 336 336 327 206 204 256 247 111 153 131 122 129 132 131 155 165 194 202 196 218 244 248 228 224 245 210 197 227 256 266 252 232 241 246 264 255 256 261 259 260 133 162 100 247 287 282 358 228 322 155 138 122 130 124 115 116 99 107 120 128 125 111
347 346 345 342 340 339 337 336 334 332 329 328 324 324 322 321 320 319 320 315 311 311 310 311 315 320 325 299 308 321 256 239 221 146 141 148 146 141 155 154 170 174 200 214 222 234 229 241 243 215 216 227 249 261 242 247 264 249 250 232 233 245 261 275 273 291 212 173 164 134 244 271 254 347 318 107 147 115 129 135 124 110 110 125 130 139 133 133
346 345 343 341 339 337 335 333 332 330 328 325 323 320 319 318 316 316 318 317 311 310 308 309 311 323 314 273 280 271 261 105 116 142 158 163 151 158 194 161 164 174 200 214 229 239 243 243 236 205 248 275 278 245 264 239 257 257 253 246 246 250 244 248 262 263 244 281 144 173 202 269 292 289 282 159 157 138 141 144 129 126 130 136 145 142 139 143
345 344 341 340 338 335 333 331 329 327 325 322 320 318 316 315 316 314 315 315 312 307 309 306 307 312 300 273 257 244 265 290 157 154 171 163 157 168 198 177 169 183 210 219 227 229 243 251 245 249 217 237 269 262 249 251 275 269 279 277 245 245 250 258 264 270 280 211 42 317 251 235 258 233 219 252 167 158 151 146 138 134 133 144 140 136 145 150
343 342 341 338 337 334 332 329 327 324 321 320 318 315 314 313 313 313 312 311 307 302 301 300 309 288 264 257 229 230 260 305 19 189 181 156 170 195 200 199 171 192 195 227 234 235 237 245 251 254 247 153 238 264 275 276 276 286 286 288 287 276 267 237 245 266 204 244 162 194 257 274 238 233 237 238 187 167 156 151 132 129 132 145 140 142 148 153
341 340 339 337 335 333 329 327 324 322 320 318 317 314 312 311 311 309 309 307 303 297 297 305 311 271 283 296 231 241 263 276 287 277 217 186 175 197 207 212 183 199 203 219 240 243 235 238 258 285 277 278 284 241 311 293 251 269 279 266 288 297 274 243 234 264 176 179 193 154 245 241 248 230 244 230 241 158 165 150 131 135 137 139 138 144 139 147
340 338 337 335 332 330 328 325 323 321 320 319 316 313 309 307 306 304 302 299 296 287 287 289 295 282 274 247 274 251 248 249 255 268 253 190 183 198 217 220 205 201 212 224 245 267 285 262 276 296 303 281 290 345 320 312 320 263 269 276 244 295 261 264 221 254 249 174 203 155 211 252 231 239 236 234 227 173 171 139 140 135 137 142 141 145 145 149
339 336 335 333 331 329 328 325 323 322 321 319 316 311 307 300 297 296 295 293 287 271 272 286 244 278 219 265 253 257 245 249 261 260 246 182 184 215 207 220 228 216 216 222 248 268 278 315 282 229 257 302 302 285 289 286 282 279 261 271 279 228 271 272 254 234 237 193 193 166 215 225 224 226 234 232 233 167 162 141 139 134 143 145 142 140 141 144
338 336 333 332 329 329 326 326 323 322 321 318 316 310 303 295 288 286 286 283 278 281 288 250 221 220 301 287 268 313 294 177 229 236 225 211 191 223 198 206 226 240 244 256 256 287 294 319 278 206 246 245 266 269 287 302 305 267 218 248 249 224 241 259 239 256 236 225 191 206 222 213 257 260 239 233 219 141 145 133 143 138 139 143 141 142 144 146
337 336 333 330 330 326 326 324 324 322 322 319 317 308 297 286 277 263 265 282 297 229 223 241 136 173 314 236 344 312 243 223 192 207 241 186 228 220 216 191 210 220 219 261 238 219 263 252 203 299 287 237 204 222 256 275 278 280 223 221 227 243 243 242 244 226 238 211 211 200 217 212 216 233 243 230 215 162 163 141 150 141 148 145 142 142 146 147
336 333 332 329 327 326 323 323 323 323 323 321 318 303 296 285 257 320 285 250 232 227 221 249 275 278 263 257 282 240 220 216 184 210 207 183 216 231 238 200 182 207 209 217 241 244 180 246 180 218 219 227 246 226 189 225 204 236 250 223 234 236 232 246 239 221 229 199 214 198 200 224 248 258 259 228 214 196 167 138 148 142 145 147 148 145 145 143
334 332 330 328 326 324 323 321 322 324 325 323 309 293 279 310 109 188 266 159 156 49 354 189 173 140 226 204 222 251 260 223 172 194 194 191 190 240 238 242 180 168 221 180 244 200 169 248 233 232 237 217 219 223 215 229 231 238 240 216 228 215 227 231 243 249 228 177 210 183 188 211 227 246 261 272 294 239 180 129 141 141 145 150 150 147 143 142
333 331 329 327 325 322 321 320 320 323 330 327 341 331 345 1 41 54 244 228 227 220 252 219 197 237 265 281 286 280 288 96 159 190 182 180 179 212 248 224 180 196 206 183 219 196 142 195 214 218 223 225 224 225 237 247 246 254 270 279 260 250 255 247 240 233 228 184 200 190 182 202 217 222 244 262 234 295 168 130 144 146 143 146 142 139 139 131
332 331 329 327 324 322 319 318 316 320 325 324 315 320 305 322 346 291 227 219 216 230 238 242 199 214 236 265 274 284 280 200 234 185 204 153 206 171 218 204 186 206 226 208 206 209 180 200 228 224 220 227 239 222 223 245 259 266 270 281 289 280 273 262 263 240 216 163 202 177 170 201 203 214 238 236 243 248 94 117 142 149 144 146 148 143 141 120
333 330 328 326 323 322 318 316 315 309 313 300 284 262 266 254 228 272 304 299 253 220 230 240 250 250 240 241 257 264 271 265 199 233 206 153 188 190 178 195 188 224 197 236 257 179 203 216 231 226 229 225 236 238 234 229 245 258 256 270 286 277 283 295 280 254 221 160 170 189 180 201 208 203 229 171 187 171 179 142 156 154 156 153 150 145 140 130
332 330 327 326 325 322 320 313 310 305 294 199 211 214 244 253 264 259 271 287 282 268 247 237 234 236 245 248 254 239 252 253 213 203 197 169 161 200 161 182 208 222 208 198 219 191 232 243 224 215 230 234 242 240 233 244 245 244 266 264 259 268 295 293 290 293 190 153 161 180 178 225 209 213 232 207 174 180 189 155 164 157 161 154 155 154 145 143
331 329 326 326 325 324 319 316 309 299 203 213 227 226 243 277 291 302 332 288 298 292 242 241 228 230 230 220 211 235 241 230 233 189 180 164 208 175 232 188 206 216 225 198 212 212 216 231 206 221 230 230 236 249 217 115 291 254 219 237 266 285 274 325 295 336 355 33 95 80 40 347 291 190 260 290 223 193 188 141 136 159 155 141 135 130 144 151
329 327 326 325 328 325 321 316 310 233 308 186 241 248 253 256 271 302 49 300 257 263 229 241 218 234 230 192 203 206 208 250 229 230 174 168 185 161 213 211 221 214 225 214 207 226 244 239 206 203 224 227 239 249 218 153 249 312 270 229 246 264 281 303 310 356 360 346 347 101 50 301 286 299 244 262 250 183 177 156 159 112 126 128 132 142 151 160
327 326 325 326 328 331 317 305 286 1 314 284 252 292 241 234 237 306 49 274 289 271 243 240 140 236 183 199 186 208 198 229 204 220 189 180 175 204 166 239 184 220 214 224 217 211 235 238 225 206 206 222 221 231 203 145 219 280 265 269 258 259 266 278 290 337 201 159 273 83 138 270 326 296 267 263 220 201 177 142 145 106 117 119 129 141 154 132
326 324 323 325 328 334 350 341 351 323 321 294 345 330 337 20 0 28 66 292 298 231 206 59 161 318 170 167 182 162 211 231 172 206 217 166 193 179 226 215 199 243 224 215 207 231 208 241 233 222 202 218 205 179 197 143 160 246 252 278 282 277 260 247 265 269 246 212 137 136 126 154 292 290 280 251 279 43 162 152 117 119 118 122 129 142 114 82
324 321 321 321 320 324 258 299 320 315 261 280 317 322 322 8 351 16 99 349 274 248 151 232 236 18 302 166 168 178 215 118 175 194 214 161 192 170 212 218 224 211 225 243 216 243 194 221 237 265 249 123 179 178 189 177 207 221 218 232 257 271 260 228 230 259 250 95 303 278 130 81 259 268 278 291 241 194 178 141 112 123 121 122 131 116 88 96
322 320 319 318 317 302 263 232 271 268 255 324 314 310 349 342 12 94 162 159 278 334 331 170 317 183 216 150 177 173 215 220 238 163 168 157 189 181 191 232 257 276 281 241 226 257 214 204 191 221 240 215 191 192 196 192 210 233 237 252 259 281 291 275 201 240 342 78 270 263 158 168 271 264 280 294 242 226 187 137 135 130 132 134 130 100 102 103
318 317 317 319 322 306 106 186 232 244 280 290 301 305 349 3 25 50 354 273 183 279 176 62 248 174 226 160 189 168 233 228 260 155 158 157 193 218 265 226 232 254 267 267 258 239 268 213 210 187 202 212 190 222 222 226 223 200 207 232 264 260 254 269 215 159 101 169 242 233 246 148 276 270 226 245 218 195 165 122 128 127 124 123 112 107 119 114
315 312 313 313 291 295 326 262 244 241 252 263 260 299 323 351 151 159 224 255 321 253 80 126 170 152 188 186 187 185 226 250 247 184 172 147 174 199 234 280 278 280 269 281 257 236 253 258 89 245 179 181 197 250 225 232 218 215 202 208 245 296 304 354 258 114 156 270 241 183 239 169 225 291 315 337 313 156 148 133 139 135 130 117 108 113 120 122
310 308 301 299 257 266 241 233 351 355 328 326 338 355 75 12 247 188 229 23 257 243 185 183 213 183 187 186 225 170 207 227 249 191 176 161 162 187 190 215 178 234 273 255 263 234 233 247 174 263 30 359 177 235 267 245 209 204 214 226 165 253 30 330 37 198 207 189 236 182 217 245 208 227 234 1 48 32 109 131 144 134 120 112 112 124 128 137
311 305 303 280 251 225 234 247 296 298 309 306 11 347 63 134 246 205 265 298 256 16 16 336 195 202 176 202 210 214 176 227 213 222 167 162 176 193 189 208 210 170 212 251 267 301 277 259 226 192 219 201 228 217 256 270 26 155 173 167 153 89 161 259 266 187 274 268 197 204 211 221 237 349 355 78 62 75 97 120 127 124 124 116 119 126 135 146
309 309 303 245 213 211 228 234 246 263 269 325 20 342 23 164 244 196 235 242 267 311 320 296 321 313 231 217 210 202 191 214 218 183 177 162 188 203 201 212 229 223 206 265 229 193 279 248 256 211 216 156 204 216 205 217 179 199 204 149 167 164 160 209 191 190 209 212 247 162 135 244 114 193 294 77 73 77 83 94 103 111 114 114 123 127 132 144
311 302 270 259 224 232 227 230 250 256 269 5 227 154 161 234 282 260 252 266 267 286 289 306 289 289 215 233 232 203 209 197 216 209 182 155 208 200 187 205 219 228 187 198 254 283 220 207 224 212 223 168 208 203 239 288 336 257 217 202 231 225 145 201 195 132 214 28 6 360 149 202 175 240 311 78 81 77 91 93 95 102 109 112 116 120 134 135
312 294 227 239 189 218 199 212 224 245 235 214 133 206 217 202 220 201 259 260 259 266 292 284 282 266 249 268 204 243 218 183 320 297 207 188 179 207 201 196 203 210 203 179 199 233 277 271 236 212 211 182 193 175 216 165 207 274 39 213 216 193 135 120 355 253 99 53 260 188 44 343 360 113 240 71 66 71 75 78 89 101 107 111 117 126 126 124
298 311 269 228 218 177 183 198 203 170 168 220 189 247 233 259 254 280 293 292 304 323 320 319 300 272 203 202 225 214 194 137 202 242 308 130 247 217 214 214 190 196 225 199 270 228 165 244 285 7 214 218 198 184 216 179 162 102 228 237 259 200 127 130 193 354 56 153 249 114 161 185 115 267 318 71 88 70 78 79 78 82 96 102 114 119 129 135
309 283 274 275 258 172 183 201 163 147 174 206 245 259 273 267 246 259 277 283 291 305 315 293 286 297 300 342 224 236 162 182 185 190 265 59 209 256 26 339 322 291 240 224 212 284 3 292 303 223 41 9 333 197 207 244 165 156 202 215 102 344 3 315 108 149 185 246 269 314 154 97 84 250 342 104 103 98 85 83 85 85 92 102 105 108 117 125
264 298 325 10 113 139 132 129 125 150 179 251 252 274 241 250 274 278 283 291 294 300 291 282 282 263 334 320 302 267 230 174 198 143 215 327 53 346 39 327 285 331 339 347 245 218 110 138 302 323 6 273 18 270 245 240 240 235 221 93 115 113 162 120 188 190 118 241 114 314 57 254 304 254 282 138 120 111 92 80 84 97 107 116 119 126 131 134
212 276 238 129 87 69 80 83 106 162 244 224 228 242 283 285 270 258 257 262 275 270 270 291 307 306 287 311 329 322 292 328 156 171 193 267 184 310 56 259 237 303 352 350 12 219 199 126 200 288 343 55 338 330 234 182 268 255 246 153 148 333 206 126 347 136 155 172 182 156 303 293 276 264 9 123 116 115 110 107 104 103 117 129 135 136 121 115
277 277 304 328 92 80 77 70 121 207 229 256 257 270 275 272 285 285 293 284 275 237 253 271 282 278 346 340 335 331 314 120 149 160 142 246 152 343 287 15 319 353 355 9 45 347 23 159 176 276 353 110 214 229 14 17 0 313 179 210 167 120 62 108 259 253 140 113 191 122 214 289 285 29 76 54 76 94 100 110 109 112 123 130 121 108 116 124
301 234 182 101 112 107 114 120 221 200 230 255 266 276 279 284 275 283 279 273 272 288 269 274 292 293 275 277 316 310 329 318 255 163 15 140 187 168 227 258 323 2 62 6 290 268 172 199 104 176 191 198 277 341 354 46 27 15 33 1 331 110 119 112 115 282 12 28 343 126 117 281 282 335 141 133 122 97 87 89 96 97 98 95 104 108 109 120
222 284 180 161 161 157 209 266 297 309 257 294 305 285 291 290 296 308 312 310 302 276 350 320 318 344 350 347 308 280 312 307 300 69 187 120 174 197 202 61 350 4 53 347 358 302 347 46 60 304 23 13 352 0 343 51 41 9 10 21 31 12 320 193 177 179 142 305 50 352 55 250 294 346 61 109 100 88 78 84 92 78 73 77 88 98 58 47
321 312 288 165 172 206 133 42 315 310 322 318 319 317 306 290 297 300 292 297 307 323 350 346 335 349 319 337 324 298 289 348 307 103 176 129 173 206 171 232 31 6 70 227 111 277 352 302 94 13 6 349 349 357 5 23 41 69 29 13 37 26 29 5 76 67 84 210 148 123 185 231 296 25 4 85 83 63 58 71 88 94 94 86 76 50 50 34
273 268 193 263 235 132 33 34 5 339 340 333 336 315 308 297 286 313 335 314 312 315 352 347 345 332 325 341 326 308 253 267 322 37 105 141 92 192 180 168 133 122 70 89 192 321 83 261 7 103 139 127 256 206 219 334 2 306 34 28 40 35 9 30 61 4 84 293 109 118 103 141 100 58 40 63 86 76 58 55 62 78 79 75 76 78 60 53
312 8 323 49 14 33 52 58 56 28 350 348 332 294 318 319 324 320 339 313 295 317 313 337 318 341 319 323 321 332 340 326 282 204 167 274 102 181 194 143 99 132 52 60 99 105 89 255 240 146 146 187 199 171 221 150 63 53 1 37 36 44 37 56 91 93 177 181 97 189 149 138 109 54 69 50 69 78 72 55 49 49 60 62 49 50 66 70
304 49 356 348 328 42 352 33 354 20 27 354 337 337 323 325 333 323 6 330 350 352 327 347 328 337 325 333 302 323 335 338 0 32 1 331 14 56 59 54 91 47 49 27 337 86 171 41 296 305 291 164 139 131 117 92 89 85 57 34 44 43 53 58 56 242 272 103 64 316 135 116 131 102 61 69 73 78 79 82 73 58 47 50 60 58 57 73
123 328 58 180 122 294 10 357 339 42 55 59 172 275 317 360 4 7 342 325 311 285 45 348 17 357 333 354 20 7 345 346 43 5 9 7 357 356 36 16 90 54 25 5 360 20 301 148 274 219 271 136 159 122 109 88 111 111 67 51 52 45 44 53 358 306 286 138 157 137 104 99 87 65 57 70 81 83 89 88 93 101 93 97 99 75 53 51
63 121 52 344 87 228 152 189 359 30 67 357 172 341 337 6 24 36 134 306 313 5 351 30 4 13 344 7 52 70 15 27 351 1 21 4 24 353 1 340 12 34 36 26 19 30 331 87 326 316 179 245 196 143 139 133 98 26 48 81 81 71 53 45 16 3 41 79 117 114 88 66 34 27 52 66 76 78 73 75 70 68 78 79 76 83 85 79
21 360 345 327 280 183 191 180 54 28 61 1 34 338 321 357 20 355 21 237 360 339 327 17 11 30 355 20 35 45 360 18 351 343 322 348 348 40 299 118 229 10 57 54 32 6 12 321 338 354 346 261 220 134 118 94 67 64 321 142 95 90 75 60 36 12 49 57 32 66 92 77 13 25 65 58 72 71 64 63 68 74 81 89 85 80 82 80
331 26 334 349 327 282 189 89 53 53 42 353 30 325 327 353 17 13 345 24 22 34 12 11 17 17 18 22 27 16 350 346 332 312 312 334 310 259 151 297 130 87 45 26 35 346 49 295 18 30 12 314 29 90 87 89 87 65 28 18 46 84 77 35 58 310 104 92 57 63 62 81 75 49 63 45 61 69 71 70 71 72 76 81 85 84 81 80
360 350 16 353 293 271 124 95 95 70 20 262 328 310 352 351 6 13 6 2 6 13 15 9 6 16 12 22 13 343 322 312 307 301 296 281 261 279 246 165 169 141 136 118 138 132 176 116 70 70 57 337 336 333 104 88 62 34 351 324 338 80 109 86 64 72 116 126 84 89 109 106 73 357 84 47 56 67 70 67 77 77 77 81 82 79 76 73